Simultaneous Nadir Overpasses (SNOs) Predictions

Prediction of SNOs between GOES-15 and METOP-C Satellite Orbit:

Table of predicted SNOs for the next 14.0 days since TLE Epoch: 8/18/2024
Index Date Time (GOES-15) GOES-15 Lat,Lon METOP-C Lat,Lon Distance(km) Time Diff (sec)
1 08/18/2024 17:13:56 0.10, 61.76 0.68, 64.43 304.29 80
2 08/20/2024 05:30:10 -0.14, 61.62 0.25, 59.86 201.53 80
3 08/21/2024 05:12:09 -0.12, 61.61 -0.82, 64.86 370.09 80
4 08/22/2024 17:28:28 0.16, 61.70 -0.18, 60.27 163.48 80
5 08/23/2024 17:10:29 0.14, 61.69 0.97, 65.26 408.06 80
6 08/25/2024 05:26:40 -0.17, 61.56 0.05, 60.71 97.99 80
7 08/26/2024 05:08:40 -0.14, 61.55 -1.05, 65.71 473.29 80
8 08/27/2024 17:24:59 0.18, 61.65 0.08, 61.11 61.03 80
9 08/30/2024 05:25:50 -0.19, 61.53 -0.21, 61.55 3.32 80
